Eau Claire, WI

9:37 AM CST on February 07, 2016 (GMT -0600)
Chippewa Valley Regional

Weather History for KEAU - November, 2010

Change the Weather History Date:

Wednesday, November 17, 2010

  Actual Average Record
Temperature  
Mean Temperature 36 °F 32 °F  
Max Temperature 41 °F 40 °F 69 °F (1955)
Min Temperature 30 °F 24 °F -3 °F (1959)
Degree Days  
Heating Degree Days 29 33  
Month to date heating degree days 417 483  
Since 1 July heating degree days 1106 1267  
Cooling Degree Days 0 0  
Month to date cooling degree days 0 0  
Year to date cooling degree days 685 579  
Moisture  
Dew Point 28 °F    
Average Humidity 78    
Maximum Humidity 96    
Minimum Humidity 59    
Precipitation  
Precipitation 0.01 in 0.06 in 1.52 in (1987)
Month to date precipitation 1.96 1.09  
Year to date precipitation 34.25 29.23  
Snow  
Snow 0.00 in 0.20 in 8.70 in (1978)
Month to date snowfall 1.6 2.4  
Since 1 July snowfall 1.6 2.8  
Since 1 September snowfall 1.6 2.8  
Snow Depth 0.00 in    
Sea Level Pressure  
Sea Level Pressure 30.09 in    
Wind  
Wind Speed 8 mph (NNW)    
Max Wind Speed 14 mph    
Max Gust Speed 18 mph    
Visibility 9 miles    
Events      
T = Trace of Precipitation, MM = Missing Value Source: NWS Daily Summary

Daily Weather History Graph

Daily Weather History Graph

Search for Another Location

Airport or City:

Trip Planner

Search our weather history database for the weather conditions in past years. The results will help you decide how hot, cold, wet, or windy it might be!

Date:

Astronomy

Nov. 17, 2010 Rise Set
Actual Time 7:05 AM CST 4:35 PM CST
Civil Twilight 6:34 AM CST 5:07 PM CST
Nautical Twilight 5:58 AM CST 5:42 PM CST
Astronomical Twilight 5:23 AM CST 6:17 PM CST
Moon 2:14 PM CST (11/17) 2:56 AM CST (11/17)
Length of Visible Light 10h 33m
Length of Day
9h 29m
Waxing Gibbous, 85% of the Moon is Illuminated
Nov 17
Waxing Gibbous
Nov 21
Full
Nov 28
Last Quarter
Dec 5
New
Dec 13
First Quarter

Hourly Weather History & Observations

Time (CST) Temp. Windchill Dew Point Humidity Pressure Visibility Wind Dir Wind Speed Gust Speed Precip Events Conditions
12:56 AM 36.0 °F 31.1 °F - N/A% 29.81 in 5.0 mi North 5.8 mph - 0.01 in   Overcast
1:56 AM 35.1 °F 29.3 °F 34.0 °F 96% 29.84 in 5.0 mi North 6.9 mph - 0.00 in   Overcast
2:56 AM 35.1 °F 28.6 °F 33.1 °F 92% 29.87 in 7.0 mi North 8.1 mph - N/A   Overcast
3:56 AM 35.1 °F 30.1 °F 34.0 °F 96% 29.89 in 7.0 mi North 5.8 mph - N/A   Overcast
4:03 AM 35.6 °F 30.7 °F 33.8 °F 93% 29.87 in 7.0 mi NNW 5.8 mph - N/A   Overcast
4:15 AM 33.8 °F 28.6 °F 33.8 °F 100% 29.87 in 7.0 mi NNW 5.8 mph - N/A   Overcast
4:38 AM 33.8 °F 27.7 °F 33.8 °F 100% 29.89 in 8.0 mi NNW 6.9 mph - N/A   Overcast
4:52 AM 33.8 °F 27.7 °F 33.8 °F 100% 29.89 in 8.0 mi NW 6.9 mph - N/A   Overcast
4:56 AM 34.0 °F 28.0 °F 32.0 °F 92% 29.92 in 8.0 mi NW 6.9 mph - N/A   Overcast
5:56 AM 32.0 °F 24.8 °F 28.9 °F 88% 29.96 in 9.0 mi NNW 8.1 mph - N/A   Scattered Clouds
6:56 AM 30.0 °F 23.2 °F 28.0 °F 92% 30.00 in 10.0 mi NNW 6.9 mph - N/A   Clear
7:56 AM 30.9 °F 25.2 °F 27.0 °F 85% 30.05 in 10.0 mi NNW 5.8 mph - N/A   Clear
8:56 AM 33.1 °F 25.5 °F 28.9 °F 85% 30.07 in 10.0 mi NW 9.2 mph - N/A   Clear
9:56 AM 36.0 °F 29.0 °F 28.9 °F 76% 30.11 in 10.0 mi NW 9.2 mph - N/A   Partly Cloudy
10:33 AM 35.6 °F 29.9 °F 28.4 °F 75% 30.10 in 10.0 mi NW 6.9 mph - N/A   Mostly Cloudy
10:44 AM 37.4 °F 29.8 °F 28.4 °F 70% 30.10 in 10.0 mi NW 11.5 mph 17.3 mph N/A   Scattered Clouds
10:56 AM 37.0 °F 31.0 °F 28.0 °F 70% 30.13 in 10.0 mi NNW 8.1 mph - N/A   Scattered Clouds
11:56 AM 39.9 °F 35.8 °F 28.0 °F 63% 30.12 in 10.0 mi NNW 5.8 mph - N/A   Partly Cloudy
12:56 PM 39.0 °F 33.4 °F 26.1 °F 60% 30.13 in 10.0 mi North 8.1 mph - N/A   Partly Cloudy
1:56 PM 39.9 °F 32.5 °F 26.1 °F 58% 30.14 in 10.0 mi WNW 12.7 mph 17.3 mph N/A   Mostly Cloudy
2:49 PM 37.4 °F 30.8 °F 26.6 °F 65% 30.12 in 10.0 mi NNW 9.2 mph - N/A   Mostly Cloudy
2:56 PM 37.0 °F 30.4 °F 26.1 °F 65% 30.15 in 10.0 mi NNW 9.2 mph - N/A   Scattered Clouds
3:05 PM 37.4 °F 30.8 °F 26.6 °F 65% 30.13 in 10.0 mi NNW 9.2 mph - N/A   Mostly Cloudy
3:14 PM 35.6 °F 27.5 °F 26.6 °F 70% 30.13 in 10.0 mi NNW 11.5 mph - N/A   Scattered Clouds
3:22 PM 35.6 °F 30.7 °F 26.6 °F 70% 30.14 in 10.0 mi NNW 5.8 mph - N/A   Mostly Cloudy
3:56 PM 35.1 °F 27.4 °F 25.0 °F 67% 30.19 in 10.0 mi WNW 10.4 mph - N/A   Overcast
4:56 PM 34.0 °F 28.8 °F 24.1 °F 67% 30.21 in 10.0 mi NNW 5.8 mph - N/A   Overcast
5:56 PM 34.0 °F 31.0 °F 24.1 °F 67% 30.21 in 10.0 mi NW 3.5 mph - N/A   Overcast
6:44 PM 33.8 °F 26.4 °F 24.8 °F 70% 30.18 in 10.0 mi NW 9.2 mph - N/A   Overcast
6:56 PM 34.0 °F 28.0 °F 25.0 °F 70% 30.22 in 10.0 mi NW 6.9 mph - N/A   Overcast
7:56 PM 34.0 °F 25.5 °F 26.1 °F 73% 30.23 in 10.0 mi NW 11.5 mph - N/A   Overcast
8:34 PM 33.8 °F 26.4 °F 26.6 °F 75% 30.21 in 10.0 mi NW 9.2 mph - N/A   Overcast
8:56 PM 33.1 °F 24.9 °F 26.1 °F 75% 30.25 in 10.0 mi NW 10.4 mph - N/A   Overcast
9:03 PM 33.8 °F 26.4 °F 26.6 °F 75% 30.22 in 10.0 mi NNW 9.2 mph - N/A   Overcast
9:29 PM 33.8 °F 26.4 °F 26.6 °F 75% 30.22 in 10.0 mi NW 9.2 mph - N/A   Overcast
9:56 PM 33.1 °F 27.7 °F 26.1 °F 75% 30.26 in 10.0 mi NW 5.8 mph - N/A   Overcast
10:56 PM 32.0 °F 25.6 °F 25.0 °F 75% 30.27 in 10.0 mi WNW 6.9 mph - N/A   Overcast
11:56 PM 32.0 °F 23.6 °F 23.0 °F 69% 30.28 in 10.0 mi NW 10.4 mph - N/A   Overcast